Weather History for Beaumont / Port Arthur, TX

Change the Weather History Date:

Tuesday, September 24, 2013

  Actual Average (KBPT) Record (KBPT)
Temperature  
Mean Temperature 80 °F 77 °F  
Max Temperature 91 °F 86 °F 100 °F (1904)
Min Temperature 71 °F 67 °F 52 °F (1975)
Degree Days  
Heating Degree Days 0 0  
Month to date heating degree days 0  
Since 1 July heating degree days 0  
Cooling Degree Days 16 12  
Month to date cooling degree days 354  
Year to date cooling degree days 2521  
Growing Degree Days 30 (Base 50)    
Moisture  
Dew Point 74 °F    
Average Humidity 78    
Maximum Humidity 100    
Minimum Humidity 50    
Precipitation  
Precipitation 0.00 in 0.19 in 5.37 in (2005)
Month to date precipitation 4.91  
Year to date precipitation 44.14  
Snow  
Snow 0.00 in 0.00 in 0.00 in ()
Month to date snowfall 0.0  
Since 1 July snowfall 0.0  
Since 1 September snowfall 0.0  
Snow Depth -    
Sea Level Pressure  
Sea Level Pressure 29.81 in    
Wind  
Wind Speed 4 mph (North)    
Max Wind Speed 14 mph    
Max Gust Speed 20 mph    
Visibility 9 miles    
Events      
T = Trace of Precipitation, MM = Missing Value Source: NWS Daily Summary

Daily Weather History Graph

Daily Weather History Graph

Search for Another Location

Airport:

Trip Planner

Search our weather history database for the weather conditions in past years. The results will help you decide how hot, cold, wet, or windy it might be!

Date:

Astronomy

Sep. 24, 2013 Rise Set
Actual Time 7:06 AM CDT 7:10 PM CDT
Civil Twilight 6:42 AM CDT 7:34 PM CDT
Nautical Twilight 6:14 AM CDT 8:02 PM CDT
Astronomical Twilight 5:46 AM CDT 8:30 PM CDT
Moon 10:50 PM CDT (9/24) 12:00 PM CDT (9/24)
Length of Visible Light 12h 51m
Length of Day
12h 04m
Waning Gibbous, 73% of the Moon is Illuminated
Sep 24
Waning Gibbous
Sep 26
Last Quarter
Oct 4
New
Oct 11
First Quarter
Oct 18
Full

Hourly Weather History & Observations

Time (CDT) Temp. Heat Index Dew Point Humidity Pressure Visibility Wind Dir Wind Speed Gust Speed Precip Events Conditions
12:15 AM 78.8 °F - 76.1 °F 91% 29.80 in 10.0 mi NE 3.5 mph - N/A   Scattered Clouds
12:35 AM 78.4 °F - 77.0 °F 95% 29.80 in 10.0 mi North 4.6 mph - N/A   Mostly Cloudy
12:55 AM 78.4 °F - 77.0 °F 95% 29.80 in 10.0 mi NNE 4.6 mph - N/A   Overcast
1:15 AM 78.4 °F - 77.4 °F 96% 29.80 in 10.0 mi North 5.8 mph - N/A   Overcast
1:35 AM 78.4 °F - 77.5 °F 97% 29.80 in 10.0 mi NNE 4.6 mph - N/A   Overcast
1:55 AM 78.4 °F - 77.5 °F 97% 29.80 in 10.0 mi NNE 3.5 mph - N/A   Overcast
2:35 AM 78.8 °F - 77.9 °F 97% 29.79 in 10.0 mi Calm Calm - N/A   Overcast
2:55 AM 78.1 °F - 78.1 °F 100% 29.79 in 10.0 mi North 3.5 mph - N/A   Overcast
3:15 AM 77.9 °F - 77.9 °F 100% 29.79 in 10.0 mi NNE 4.6 mph - N/A   Overcast
3:35 AM 77.9 °F - 77.9 °F 100% 29.79 in 10.0 mi North 3.5 mph - N/A   Overcast
3:55 AM 77.9 °F - 77.9 °F 100% 29.79 in 10.0 mi NNE 6.9 mph - N/A   Overcast
4:35 AM 77.5 °F - 77.5 °F 100% 29.80 in 10.0 mi North 3.5 mph - N/A   Overcast
4:55 AM 77.0 °F - 77.0 °F 100% 29.80 in 10.0 mi NNE 3.5 mph - N/A   Overcast
5:15 AM 76.6 °F - 76.6 °F 100% 29.80 in 10.0 mi North 3.5 mph - N/A   Overcast
5:35 AM 76.6 °F - 76.6 °F 100% 29.80 in 10.0 mi Calm Calm - N/A   Overcast
5:55 AM 77.0 °F - 77.0 °F 100% 29.81 in 10.0 mi Calm Calm - N/A   Overcast
6:15 AM 77.0 °F - 77.0 °F 100% 29.81 in 10.0 mi Calm Calm - N/A   Overcast
6:35 AM 77.0 °F - 77.0 °F 100% 29.81 in 10.0 mi Calm Calm - N/A   Overcast
6:55 AM 77.2 °F - 77.2 °F 100% 29.82 in 10.0 mi Calm Calm - N/A   Overcast
7:15 AM 77.0 °F - 77.0 °F 100% 29.82 in 7.0 mi Calm Calm - N/A   Overcast
7:35 AM 77.0 °F - 77.0 °F 100% 29.82 in 7.0 mi Calm Calm - N/A   Overcast
7:55 AM 77.0 °F - 77.0 °F 100% 29.83 in 7.0 mi Calm Calm - N/A   Overcast
8:15 AM 77.7 °F - 77.7 °F 100% 29.83 in 7.0 mi Calm Calm - N/A   Scattered Clouds
8:35 AM 79.3 °F - 79.2 °F 99% 29.83 in 7.0 mi North 3.5 mph - N/A   Mostly Cloudy
8:55 AM 80.6 °F 88.7 °F 79.7 °F 97% 29.84 in 7.0 mi NNW 5.8 mph - N/A   Mostly Cloudy
9:15 AM 80.1 °F 87.2 °F 79.7 °F 99% 29.84 in 5.0 mi NW 4.6 mph - N/A   Overcast
9:35 AM 82.2 °F 91.9 °F 78.6 °F 89% 29.85 in 10.0 mi North 4.6 mph - N/A   Mostly Cloudy
9:55 AM 81.7 °F 90.0 °F 77.7 °F 88% 29.85 in 10.0 mi NNW 3.5 mph - N/A   Scattered Clouds
10:15 AM 84.4 °F 93.1 °F 75.7 °F 75% 29.86 in 10.0 mi WNW 3.5 mph - N/A   Scattered Clouds
10:35 AM 85.3 °F 95.0 °F 76.3 °F 74% 29.86 in 10.0 mi NW 6.9 mph - N/A   Scattered Clouds
10:55 AM 85.3 °F 94.2 °F 75.2 °F 72% 29.86 in 10.0 mi NW 6.9 mph - N/A   Mostly Cloudy
11:15 AM 86.4 °F 94.2 °F 73.6 °F 66% 29.86 in 10.0 mi NNW 8.1 mph - N/A   Scattered Clouds
11:35 AM 87.6 °F 95.7 °F 73.8 °F 63% 29.85 in 10.0 mi North 5.8 mph - N/A   Scattered Clouds
11:55 AM 87.6 °F 96.2 °F 74.1 °F 64% 29.85 in 10.0 mi North 4.6 mph - N/A   Scattered Clouds
12:15 PM 89.2 °F 99.5 °F 75.4 °F 63% 29.84 in 10.0 mi North 8.1 mph - N/A   Mostly Cloudy
12:55 PM 89.2 °F 97.4 °F 73.2 °F 59% 29.83 in 10.0 mi NNE 11.5 mph - N/A   Scattered Clouds
1:15 PM 86.5 °F 94.2 °F 73.4 °F 65% 29.82 in 10.0 mi North 9.2 mph - N/A   Mostly Cloudy
1:35 PM 89.4 °F 98.3 °F 73.8 °F 60% 29.82 in 10.0 mi North 13.8 mph 17.3 mph N/A   Scattered Clouds
1:55 PM 90.3 °F 98.7 °F 73.0 °F 57% 29.81 in 10.0 mi North 12.7 mph 16.1 mph N/A   Scattered Clouds
2:15 PM 89.6 °F 97.2 °F 72.5 °F 57% 29.80 in 10.0 mi North 11.5 mph - N/A   Scattered Clouds
2:35 PM 90.3 °F 98.2 °F 72.5 °F 56% 29.80 in 10.0 mi NNE 12.7 mph 19.6 mph N/A   Scattered Clouds
2:55 PM 90.7 °F 98.5 °F 72.3 °F 55% 29.80 in 10.0 mi North 11.5 mph 18.4 mph N/A   Scattered Clouds
3:15 PM 89.8 °F 96.5 °F 71.8 °F 55% 29.79 in 10.0 mi NNE 10.4 mph - N/A   Mostly Cloudy
3:35 PM 90.1 °F 96.8 °F 71.4 °F 54% 29.79 in 10.0 mi NNE 11.5 mph - N/A   Scattered Clouds
3:55 PM 89.1 °F 94.6 °F 70.7 °F 54% 29.79 in 10.0 mi NNE 8.1 mph - N/A   Scattered Clouds
4:15 PM 90.3 °F 96.7 °F 70.9 °F 53% 29.78 in 10.0 mi NNE 11.5 mph 16.1 mph N/A   Scattered Clouds
4:35 PM 90.9 °F 96.7 °F 70.3 °F 51% 29.78 in 10.0 mi North 9.2 mph 16.1 mph N/A   Clear
4:55 PM 90.3 °F 95.7 °F 69.8 °F 51% 29.78 in 10.0 mi North 9.2 mph - N/A   Scattered Clouds
5:15 PM 89.4 °F 94.8 °F 70.0 °F 53% 29.78 in 10.0 mi NNE 6.9 mph - N/A   Clear
5:35 PM 88.3 °F 93.6 °F 70.3 °F 55% 29.78 in 10.0 mi NNE 6.9 mph - N/A   Clear
5:55 PM 89.2 °F 93.2 °F 68.5 °F 50% 29.78 in 10.0 mi NNE 6.9 mph - N/A   Clear
6:15 PM 88.5 °F 93.5 °F 70.0 °F 54% 29.78 in 10.0 mi NE 6.9 mph - N/A   Clear
6:35 PM 87.3 °F 92.4 °F 70.5 °F 57% 29.79 in 10.0 mi NNE 6.9 mph - N/A   Clear
6:55 PM 86.0 °F 90.7 °F 70.2 °F 59% 29.79 in 10.0 mi NE 5.8 mph - N/A   Clear
7:15 PM 84.6 °F 88.8 °F 69.8 °F 61% 29.79 in 10.0 mi NE 3.5 mph - N/A   Clear
7:35 PM 83.5 °F 87.4 °F 69.8 °F 63% 29.80 in 10.0 mi NE 3.5 mph - N/A   Clear
7:55 PM 83.3 °F 87.4 °F 69.8 °F 64% 29.80 in 10.0 mi ENE 3.5 mph - N/A   Clear
8:15 PM 82.8 °F 86.2 °F 69.1 °F 63% 29.81 in 10.0 mi Calm Calm - N/A   Clear
8:35 PM 78.3 °F - 70.2 °F 76% 29.82 in 10.0 mi Calm Calm - N/A   Clear
8:55 PM 77.0 °F - 72.5 °F 86% 29.82 in 10.0 mi Calm Calm - N/A   Clear
9:15 PM 76.1 °F - 71.8 °F 86% 29.83 in 10.0 mi Calm Calm - N/A   Clear
9:35 PM 75.6 °F - 71.4 °F 87% 29.83 in 10.0 mi Calm Calm - N/A   Clear
9:55 PM 74.1 °F - 66.6 °F 77% 29.84 in 10.0 mi Calm Calm - N/A   Clear
10:15 PM 74.8 °F - 67.3 °F 77% 29.84 in 10.0 mi Calm Calm - N/A   Clear
10:35 PM 73.9 °F - 66.6 °F 78% 29.84 in 7.0 mi Calm Calm - N/A   Clear
10:55 PM 73.6 °F - 66.4 °F 78% 29.84 in 5.0 mi Calm Calm - N/A   Haze
11:15 PM 73.4 °F - 65.7 °F 77% 29.84 in 2.0 mi Calm Calm - N/A   Haze
11:35 PM 71.8 °F - 63.7 °F 76% 29.84 in 0.5 mi Calm Calm - N/A   Haze
11:55 PM 72.1 °F - 63.7 °F 75% 29.84 in 0.8 mi Calm Calm - N/A   Haze